Location: Newark
(51.0500°N, 12.4500°E)
Time: 11:29:56
(UTC+00:00)

Vanguard 1 - Pass Details

Date: 26 February 2020
Orbit: 649 x 3833 km, 34.2° (Epoch: 07 April)

Event Time Altitude Azimuth Distance (km) Brightness Sun altitude
Rises 04:53:36 0° 209° (SSW) 7,780 14.4 -11.6°
Reaches altitude 10° 04:59:57 10° 200° (SSW) 6,902 14.2 -10.6°
Maximum altitude 05:17:51 30° 150° (SSE) 5,135 14.1 -7.8°
Drops below altitude 10° 05:32:28 10° 99° (E) 5,682 15.9 -5.5°
Sets 05:36:55 0° 89° (E) 6,281 16.5 -4.8°
